Snowfall_Accumulation
0.0 0.0 0.0 0.0 0.0 0.0 0.0 0.0 0.0 0.0 0.0 0.0 0.0 0.0 0.0 0.0 0.0 0.0 0.0 0.0 0.0 0.0 0.0 0.0 0.0 0.0 0.0 0.0 0.0 0.0 0.0 0.0 0.0 0.0 0.0 0.0 0.0 0.0 0.0 0.0 0.0 0.0 0.0 0.0
0.0 0.0 0.0 0.0 0.0 0.0 0.0 0.0 0.0 0.0 0.0 0.0 0.0 0.0 0.0 0.0 0.0 0.0 0.0 0.0 0.0 0.0 0.0 0.0 0.0 0.0 0.0 0.0 0.0 0.0 0.0 0.0 0.0 0.0 0.0 0.0 0.0 0.0 0.0 0.0 0.0 0.0 0.0 0.0
0.0 0.0 0.0 0.0 0.0 0.0 0.0 0.1 0.0 0.0 0.0 0.0 0.0 0.0 0.0 0.0 0.0 0.0 0.0 0.0 0.0 0.0 0.0 0.0 0.0 0.0 0.0 0.0 0.0 0.0 0.0 0.0 0.0 0.0 0.0 0.0 0.0 0.0 0.0 0.0 0.0 0.0 0.0 0.0
0.0 0.0 0.0 0.0 0.0 0.1 0.3 0.0 0.0 0.0 0.1 0.4 0.0 0.8 0.0 0.0 0.0 0.0 0.0 0.0 0.0 0.0 0.0 0.0 0.0 0.0 0.0 0.0 0.0 0.0 0.0 0.0 0.0 0.0 0.0 0.0 0.0 0.0 0.0 0.0 0.0 0.0 0.0 0.0
0.1 0.0 0.0 0.3 0.1 0.0 0.1 0.0 0.0 0.0 0.0 0.4 0.0 1.5 0.5 0.0 0.3 0.0 0.0 0.0 0.0 0.0 0.0 0.0 0.0 0.0 0.0 0.0 0.0 0.0 0.0 0.0 0.0 0.0 0.0 0.0 0.0 0.0 0.0 0.0 0.0 0.0 0.0 0.0
0.0 0.0 0.0 0.2 0.0 0.0 0.0 0.0 0.0 0.0 0.3 4.1 0.0 0.3 3.2 1.5 2.3 0.0 0.0 0.0 0.0 0.0 0.0 0.0 0.0 0.0 0.0 0.0 0.0 0.0 0.0 0.0 0.0 0.0 0.0 0.0 0.0 0.0 0.0 0.0 0.0 0.0 0.0 0.0
0.0 0.0 0.0 0.0 0.2 0.0 0.2 0.5 3.8 4.2 5.2 3.9 0.1 0.6 4.2 1.7 0.2 0.2 0.2 0.0 0.0 0.0 0.0 0.0 0.0 0.0 0.0 0.0 0.0 0.0 0.0 0.0 0.0 0.0 0.0 0.0 0.0 0.0 0.0 0.0 0.0 0.0 0.0 0.0
1.1 1.6 0.3 0.0 1.3 0.3 0.1 0.3 2.3 5.4 2.2 0.2 0.0 4.7 3.4 0.0 0.0 0.0 0.1 0.1 0.0 0.0 0.0 0.0 0.0 0.0 0.0 0.0 0.0 0.0 0.0 0.0 0.0 0.0 0.0 0.0 0.0 0.0 0.1 0.0 0.1 0.1 0.1 0.2
3.2 1.5 0.0 0.1 0.0 0.0 0.4 2.0 0.2 2.5 0.9 2.3 0.8 5.9 0.0 0.0 0.3 0.0 0.3 0.2 0.2 0.1 0.1 0.1 0.0 0.0 0.0 0.0 0.0 0.1 0.0 0.0 0.0 0.0 0.0 0.0 0.0 0.2 0.2 0.1 0.1 0.2 0.2 0.2
1.3 6.1 0.0 0.0 0.0 0.0 0.2 0.0 5.7 6.2 30.3 18.7 4.2 2.9 12.9 7.7 4.3 2.0 2.2 1.9 1.6 1.4 1.3 1.2 0.3 0.2 0.0 0.0 0.0 0.1 0.0 0.3 0.5 0.2 0.1 0.1 0.1 0.3 0.5 0.5 0.8 0.7 0.5 0.9
1.0 3.9 0.3 0.0 0.6 1.4 0.2 1.3 3.7 5.5 9.1 20.2 18.7 20.7 8.6 8.7 5.1 4.9 2.4 1.9 3.0 2.9 3.3 5.2 5.4 1.9 2.0 2.2 0.8 1.4 2.2 1.0 0.4 0.1 0.1 0.5 1.0 1.8 1.6 1.8 1.5 1.4 1.2 1.0
1.8 5.3 6.3 0.4 0.0 0.0 0.2 5.0 8.4 46.4 40.4 23.8 21.2 32.9 4.0 6.0 6.5 2.3 0.4 0.2 0.2 2.2 2.5 4.1 9.7 10.4 8.2 8.1 7.1 5.3 1.5 0.9 0.4 0.4 0.6 2.3 2.9 2.5 2.3 2.6 2.2 1.8 1.8 1.3
2.7 8.6 13.4 3.6 1.0 0.0 5.1 6.7 6.5 10.3 24.0 27.4 38.3 33.9 3.3 4.9 1.5 0.2 0.3 0.1 0.0 0.7 1.0 1.7 3.8 7.1 13.0 6.3 8.5 5.8 4.3 4.6 2.1 2.5 2.5 3.7 4.0 3.6 3.6 3.5 3.0 2.4 2.3 2.1
1.3 4.6 6.1 12.0 4.1 1.7 4.4 2.3 3.3 12.1 28.5 17.0 16.1 13.6 4.7 3.0 0.7 0.3 0.4 0.3 0.5 0.6 1.3 1.9 1.9 2.8 3.2 3.5 8.2 14.4 6.0 5.3 6.1 5.7 4.5 4.3 5.2 5.4 5.2 3.4 3.3 1.4 0.7 0.9
6.0 10.9 4.5 3.0 0.8 0.8 3.1 3.3 2.4 6.8 3.8 13.0 8.1 5.6 3.8 2.6 1.4 1.2 1.0 0.6 0.8 1.6 1.6 2.0 2.3 2.4 1.9 1.7 1.8 2.9 3.1 5.3 5.3 7.7 7.0 8.2 6.1 3.9 3.0 3.4 2.1 1.0 1.2 1.2
4.7 13.7 7.4 13.0 1.2 2.8 6.0 4.6 2.4 5.2 4.1 4.5 4.0 2.8 1.2 0.3 0.5 0.9 1.0 1.4 1.8 1.9 1.7 1.7 1.5 0.6 0.8 0.9 1.4 0.9 1.3 3.5 2.9 4.3 8.8 6.8 6.1 6.2 4.4 2.7 2.2 2.3 2.2 1.3
9.3 19.0 19.2 21.9 3.1 4.4 16.2 8.2 5.7 4.5 1.8 1.4 1.4 1.3 0.6 0.5 0.8 1.7 1.6 1.8 2.4 1.8 1.5 1.2 1.3 1.2 1.1 1.0 0.7 0.7 0.8 1.5 2.1 2.2 7.0 8.2 7.5 6.3 7.5 1.2 1.6 3.2 5.6 5.7
11.0 13.7 18.5 25.9 8.3 32.7 6.8 2.5 1.7 0.8 0.6 0.3 0.2 0.5 0.3 0.7 1.8 2.4 2.1 1.9 1.7 1.4 1.1 1.0 1.1 1.1 1.0 0.1 0.2 0.0 0.0 0.2 1.0 0.4 3.0 4.2 4.0 5.4 12.5 9.3 10.3 10.8 7.4 9.0
3.1 7.7 24.8 28.3 17.1 6.4 1.8 0.3 0.6 3.6 2.7 0.3 0.4 0.5 0.5 0.5 0.9 1.9 1.4 2.1 3.1 4.0 4.2 4.5 2.8 2.4 0.4 0.4 0.3 0.0 0.0 0.0 0.0 0.1 0.7 1.3 3.8 5.9 14.0 18.8 19.4 18.9 20.7 17.8
2.4 3.5 16.6 26.9 26.6 15.1 0.2 0.0 0.0 0.0 9.9 0.5 0.2 0.0 0.1 0.2 2.7 6.9 2.9 3.1 3.8 6.9 5.3 5.5 4.2 1.0 1.4 2.9 1.5 2.4 1.0 0.0 0.4 0.5 0.4 0.0 0.0 0.9 4.0 9.7 13.7 13.9 12.4 14.8
12.8 21.3 33.9 22.7 22.8 2.8 0.5 0.1 0.0 9.8 8.8 2.4 1.0 2.5 3.7 4.0 5.2 6.7 5.4 4.8 5.3 7.1 10.7 7.2 6.7 6.5 6.4 5.9 2.6 3.7 7.8 7.2 5.2 4.6 3.6 1.9 0.0 0.4 1.9 4.0 7.3 6.5 5.6 7.4
11.6 24.4 23.9 19.4 31.6 15.3 0.0 0.1 3.8 2.6 2.6 4.1 5.6 8.4 11.7 11.2 11.8 11.0 9.0 7.0 5.6 5.2 7.4 11.5 9.7 9.8 8.3 8.2 8.0 7.9 9.8 14.1 13.3 10.0 10.1 6.0 6.1 8.0 9.2 9.0 8.7 10.4 7.7 7.5
13.9 8.8 14.0 14.9 11.8 2.7 0.9 1.8 1.5 0.7 2.9 3.9 4.6 5.0 7.6 10.7 11.0 9.2 6.4 4.2 3.8 4.8 4.6 5.4 10.3 11.1 8.4 6.0 7.9 10.3 11.4 10.9 13.8 16.0 15.5 15.9 14.4 13.6 16.3 16.6 13.4 13.6 12.3 10.1
5.5 2.2 6.1 6.9 5.8 3.8 2.3 0.7 1.4 2.3 4.6 4.2 3.7 4.1 4.5 5.8 6.7 6.7 4.9 3.4 2.7 2.5 2.7 2.7 3.4 6.3 8.5 9.0 7.1 7.0 9.4 8.7 9.4 11.3 14.2 17.0 17.8 18.2 17.6 18.7 18.9 18.0 18.3 17.0
7.0 4.5 6.0 8.3 8.3 1.5 3.2 4.6 4.2 4.3 4.1 4.2 4.4 4.0 3.8 3.7 4.0 4.1 4.2 3.8 3.3 3.2 2.5 2.2 2.0 2.1 4.2 5.2 7.2 8.6 9.2 8.4 9.3 8.5 13.9 17.0 14.7 16.0 16.4 16.1 15.9 14.7 16.6 12.9
4.5 11.4 11.8 14.1 6.7 6.6 7.3 5.8 4.4 4.1 4.1 2.8 1.7 1.7 1.7 1.7 1.9 1.3 0.6 0.9 0.7 0.8 0.7 0.6 0.6 0.7 1.1 1.3 1.7 2.3 2.9 3.7 7.1 11.1 11.7 17.2 16.0 14.2 14.6 15.8 20.8 15.3 13.8 11.5